CDT,Max TemperatureF,Mean TemperatureF,Min TemperatureF,Max Dew PointF,MeanDew PointF,Min DewpointF,Max Humidity, Mean Humidity, Min Humidity, Max Sea Level PressureIn, Mean Sea Level PressureIn, Min Sea Level PressureIn, Max VisibilityMiles, Mean VisibilityMiles, Min VisibilityMiles, Max Wind SpeedMPH, Mean Wind SpeedMPH, Max Gust SpeedMPH,PrecipitationIn, CloudCover, Events, WindDirDegrees
2012-8-1,98,83,67,70,66,62,93,63,33,30.07,29.89,29.74,10,8,1,14,9,40,0.55,4,Rain-Thunderstorm,145
2012-8-2,92,79,66,72,64,46,93,62,30,29.93,29.84,29.73,10,10,10,25,7,36,T,0,Rain-Thunderstorm,80
2012-8-3,97,81,64,67,62,48,93,62,31,29.93,29.75,29.65,10,10,7,36,11,46,T,0,Thunderstorm,135
2012-8-4,86,72,57,58,49,42,86,54,21,30.16,30.02,29.87,10,10,5,23,10,33,0.21,1,Rain-Thunderstorm,348
2012-8-5,91,71,50,54,50,47,89,57,24,30.28,30.16,30.06,10,10,10,17,7,23,0.00,0,,148
2012-8-6,100,84,67,67,57,47,87,57,26,30.09,29.98,29.87,10,10,7,28,8,38,0.20,0,Rain-Thunderstorm,153
2012-8-7,94,78,62,67,63,57,87,62,36,30.02,29.97,29.94,10,10,10,20,5,30,T,0,,28
2012-8-8,101,79,56,62,53,42,93,54,15,30.04,29.99,29.92,10,10,10,22,9,29,0.00,0,,328
2012-8-9,87,69,51,60,53,47,100,63,25,30.15,30.10,30.05,10,9,4,13,5,17,0.00,0,,40
2012-8-10,86,70,54,60,55,52,93,65,37,30.19,30.07,29.99,10,10,10,20,6,24,0.00,0,,115
2012-8-11,88,73,57,59,53,48,90,61,32,30.05,29.93,29.81,10,10,10,21,9,26,T,1,Rain,134
2012-8-12,89,73,56,58,53,49,93,60,26,30.09,29.99,29.92,10,10,10,30,13,39,0.00,1,,336
2012-8-13,82,64,46,54,50,45,93,63,32,30.17,30.09,29.99,10,10,10,18,7,22,0.00,0,,122
2012-8-14,87,70,52,61,57,50,96,68,40,30.02,29.88,29.76,10,9,2,21,10,25,0.00,0,,163
2012-8-15,97,79,61,61,55,46,84,51,18,30.02,29.77,29.67,10,9,2,30,10,39,0.00,0,,253
2012-8-16,73,60,47,50,43,36,77,51,25,30.22,30.14,30.04,10,10,10,17,7,26,T,2,,359
2012-8-17,81,63,45,49,44,40,82,55,28,30.20,30.11,29.99,10,10,10,16,6,29,0.00,4,,129
2012-8-18,82,65,47,49,42,35,86,53,20,30.08,30.00,29.95,10,10,10,29,10,39,0.00,0,,21
2012-8-19,83,62,41,50,44,39,100,63,25,30.18,30.08,29.99,10,10,9,12,5,15,0.00,1,,248
2012-8-20,90,67,43,52,44,38,82,52,21,30.05,29.98,29.90,10,10,10,15,5,20,0.00,0,,138
2012-8-21,93,73,53,55,51,46,72,48,23,30.02,29.94,29.87,10,10,7,15,7,21,0.00,0,,185
2012-8-22,94,80,65,58,53,47,73,48,23,29.96,29.83,29.75,10,10,10,21,10,28,0.00,0,,173
2012-8-23,77,71,65,67,62,56,93,72,50,29.91,29.84,29.80,10,8,2,15,5,20,0.13,5,Rain,148
2012-8-24,74,69,63,66,65,63,93,83,73,29.93,29.82,29.75,10,8,4,14,7,18,0.00,7,,123
2012-8-25,85,72,58,68,58,46,97,62,27,29.96,29.86,29.74,10,6,1,24,8,31,T,6,Rain,35
2012-8-26,92,73,53,65,59,51,100,68,36,30.09,30.01,29.95,10,6,0,17,7,21,0.00,1,Fog,114
2012-8-27,97,82,66,64,61,57,87,57,27,30.11,30.04,29.96,10,10,10,17,10,23,0.00,0,,159
2012-8-28,102,84,66,62,54,45,73,44,15,30.05,29.96,29.86,10,10,10,16,10,23,0.00,0,,178
2012-8-29,103,81,58,49,43,38,60,36,11,29.99,29.85,29.76,10,10,10,21,10,29,0.00,0,,199
2012-8-30,102,82,61,54,43,38,53,32,11,29.93,29.84,29.78,10,10,10,20,8,29,0.00,0,,224
2012-8-31,97,74,51,54,50,41,83,49,15,30.01,29.96,29.91,10,10,10,20,6,24,0.00,0,,115